Temperature
18 19 20 20 17 14 16 17 18 19 19 20 20 19 17 18 18 19 19 19 18 18 17 16 15 14 13 13 13 13 12 12 12 11 11 11 10 10 10 10 10 10 10 10 10 10 10 10 10
18 19 20 19 14 15 16 17 18 18 20 20 20 20 19 19 20 20 19 19 18 18 17 16 15 14 14 13 13 13 12 12 11 11 11 11 10 10 10 10 10 10 10 10 10 11 11 11 11
18 19 19 14 15 15 18 18 17 19 20 20 20 20 20 20 20 20 19 19 18 18 17 16 15 15 14 13 13 13 12 12 11 11 11 10 10 10 10 10 10 10 10 10 11 11 11 11 11
18 19 18 14 17 16 17 18 18 19 20 20 20 19 20 20 20 20 19 19 18 18 17 16 15 14 14 13 13 13 12 12 11 11 11 10 10 10 10 10 10 10 10 10 11 11 11 11 11
18 19 15 15 17 17 16 18 19 18 19 20 20 19 20 20 20 20 19 19 18 18 17 16 15 14 13 13 13 12 12 12 11 11 11 10 10 11 11 11 11 10 10 10 11 11 11 11 11
18 16 14 15 17 17 17 19 19 19 19 19 20 19 20 20 20 20 19 18 18 17 17 16 15 14 13 13 13 12 12 11 11 11 10 10 10 11 11 11 11 11 11 11 11 11 11 11 11
18 14 15 16 16 17 18 19 19 18 19 19 20 19 20 20 20 19 19 18 17 17 16 15 14 13 13 13 12 12 12 11 11 11 10 10 10 10 10 10 10 10 10 10 10 10 10 10 10
18 14 16 15 17 18 19 19 20 19 19 20 20 19 20 20 20 19 18 17 17 16 16 15 14 14 13 12 12 12 11 11 11 10 10 10 10 10 10 10 10 10 10 10 10 10 10 10 10
18 14 15 17 17 18 19 19 20 20 20 19 20 20 20 20 19 19 18 17 17 16 15 15 14 14 13 13 12 11 11 11 10 10 10 10 10 9 9 9 9 9 9 9 9 9 9 9 9
17 14 17 17 18 18 19 19 19 19 19 19 20 20 20 20 19 19 19 18 18 17 16 15 14 14 13 12 12 11 11 11 10 10 10 10 9 9 9 9 9 9 8 8 8 8 8 8 8
17 16 17 18 19 19 19 19 19 19 18 19 20 20 20 19 19 19 19 18 18 17 16 15 14 14 13 12 12 11 11 10 10 10 10 9 9 9 9 8 8 8 8 8 8 8 8 8 8
17 17 17 18 19 19 19 19 19 19 20 20 20 20 20 19 19 19 19 18 17 17 16 15 14 13 13 12 12 11 11 11 10 10 9 9 9 9 8 8 8 8 8 8 7 7 7 7 7
17 17 18 18 18 18 18 18 18 19 20 19 19 19 19 19 19 19 18 17 17 16 16 15 14 13 13 12 12 11 11 10 10 10 9 9 9 9 8 8 8 8 8 7 7 7 7 7 7
17 17 17 17 18 17 17 17 16 18 19 19 19 19 18 18 18 18 17 17 17 16 16 15 14 14 13 12 12 11 11 10 10 9 9 9 9 9 8 8 8 8 8 7 7 7 7 7 7
17 16 15 16 16 16 16 15 14 19 18 18 18 18 18 18 18 17 17 17 17 16 16 15 15 14 13 12 11 11 10 10 10 9 9 9 9 9 8 8 8 8 8 7 7 7 7 7 7
16 14 14 15 15 15 16 15 15 18 17 17 18 18 17 17 17 17 17 17 16 16 16 15 15 14 13 12 11 11 10 10 10 9 9 9 9 9 8 8 8 8 8 7 7 7 7 7 7
14 13 14 14 15 15 15 14 14 17 16 16 17 17 17 17 17 17 17 17 16 16 16 15 15 14 13 12 11 11 10 10 10 9 9 9 9 9 8 8 8 8 7 7 7 7 7 7 7
14 13 14 14 15 15 14 13 14 16 15 16 16 17 17 17 17 17 17 16 16 16 16 15 15 14 13 12 11 11 10 10 10 9 9 9 9 9 8 8 8 8 7 7 7 7 7 6 7
14 14 13 13 14 14 13 12 14 15 14 14 15 16 17 17 17 16 16 16 16 16 15 15 15 14 13 12 11 11 10 10 10 9 9 9 9 9 8 8 8 7 7 7 7 6 6 6 6
14 13 13 13 13 13 12 12 13 12 13 15 15 16 17 17 16 16 16 16 16 15 15 15 14 14 13 12 11 11 10 10 10 9 9 9 9 9 8 8 8 7 7 7 7 6 6 6 6
13 13 13 13 13 13 13 12 13 13 13 14 14 15 16 16 17 16 16 15 15 15 14 14 14 13 13 12 11 11 10 10 10 9 9 9 9 8 8 8 7 7 7 7 6 6 6 6 6
12 13 13 13 13 11 13 11 13 13 12 12 13 13 14 15 16 16 16 15 15 14 14 13 13 13 12 12 11 11 11 10 10 10 9 9 9 8 8 7 7 7 6 6 6 6 6 5 5
13 14 13 13 13 11 11 11 12 12 13 13 12 13 14 14 15 15 15 15 14 13 13 13 13 12 12 12 11 11 11 10 10 10 9 9 8 8 8 7 7 6 6 6 6 6 5 5 5
13 12 11 9 10 11 11 10 11 12 13 13 13 13 13 14 14 14 14 14 13 13 13 13 12 12 12 12 11 11 11 11 10 10 9 9 8 8 7 7 6 6 6 6 5 5 5 5 5
13 12 11 11 10 10 11 10 11 12 12 12 12 13 13 13 13 13 13 13 13 13 13 12 12 12 12 12 11 11 11 10 10 9 9 8 8 7 7 7 6 6 6 5 5 5 5 5 4
12 12 11 12 11 10 10 10 12 12 13 13 13 13 13 13 13 13 14 13 13 13 12 12 12 12 12 11 11 11 10 10 10 9 9 8 7 7 7 6 6 6 5 5 5 5 4 4 4
11 11 11 10 10 10 10 10 11 13 13 13 12 12 12 13 13 13 13 13 13 13 13 12 12 12 11 11 11 10 10 10 9 9 8 8 7 7 6 6 6 5 5 5 4 4 4 3 3
11 10 9 10 10 10 10 11 12 14 14 13 11 12 12 13 13 13 13 13 13 13 12 12 12 12 11 11 10 10 9 9 9 8 8 7 7 6 6 6 5 5 5 4 4 4 3 3 2
10 10 10 9 9 10 10 11 12 13 13 12 12 13 13 14 14 14 14 13 13 12 12 12 11 11 11 10 10 9 9 8 8 8 7 7 6 6 5 5 5 5 4 4 3 3 2 2 2
11 10 9 10 9 8 9 11 12 12 12 12 13 14 15 15 15 14 14 13 13 12 12 12 11 11 10 10 9 9 8 8 8 7 7 6 6 5 5 5 4 4 4 3 3 2 2 1 1
Wind_Speed
7 6 2 4 6 5 1 3 3 2 3 1 2 6 9 6 4 2 0 10 8 11 18 18 18 16 15 14 13 12 11 10 10 10 10 10 10 11 11 11 12 12 13 13 13 13 13 13 14
3 2 5 5 5 2 4 4 4 5 4 5 4 4 4 2 1 3 3 8 9 15 18 17 19 17 16 14 13 12 11 10 9 9 10 10 10 10 10 11 11 11 12 12 12 12 12 12 13
2 3 5 5 4 5 4 5 6 3 4 4 4 2 3 3 2 5 5 10 10 15 17 18 19 18 16 15 14 13 11 10 9 9 9 9 9 9 9 10 10 10 11 11 11 11 12 11 12
3 5 5 5 3 5 5 4 4 2 2 2 5 3 1 0 1 3 8 10 11 12 16 18 20 18 17 16 14 13 11 10 10 9 9 8 8 8 9 9 9 9 10 10 10 11 11 11 11
4 5 5 2 3 4 5 4 4 3 4 3 6 6 2 1 2 6 11 11 12 10 15 17 19 18 17 16 14 13 11 10 9 8 8 8 8 7 7 7 8 8 8 9 9 9 10 10 10
4 5 4 2 4 5 3 2 4 3 3 4 7 7 3 1 4 6 10 10 10 11 14 16 19 18 17 16 14 13 11 10 9 8 7 7 6 6 6 6 6 6 7 7 7 8 8 8 8
5 5 5 3 2 4 2 2 5 4 4 5 8 7 3 1 4 7 8 8 9 12 12 12 16 17 17 16 15 13 12 10 9 8 7 7 5 5 4 4 4 4 5 5 6 6 6 7 7
5 5 4 1 2 4 3 1 3 4 3 1 6 7 6 4 8 9 8 7 7 8 9 10 12 15 15 15 15 14 13 11 10 8 7 6 5 3 2 2 1 1 2 3 4 5 6 6 7
4 5 2 3 4 3 2 1 1 2 4 1 2 3 1 8 11 10 6 5 7 8 7 9 9 12 14 14 14 14 13 11 10 9 8 7 5 2 1 0 2 3 3 4 5 6 6 7 7
5 3 5 3 3 3 1 1 1 2 1 2 3 1 4 8 11 11 10 12 13 13 10 6 9 11 13 12 12 12 12 11 10 9 8 7 6 4 2 2 3 5 5 5 6 7 7 7 7
4 5 4 3 3 2 1 2 1 4 6 8 8 7 7 7 9 11 11 11 13 12 12 10 9 12 12 10 10 10 10 9 9 9 9 8 6 5 4 4 4 5 5 5 6 7 7 8 8
2 3 3 3 2 2 3 3 3 6 10 7 8 6 8 10 12 13 12 10 9 10 13 11 10 10 12 11 10 10 9 8 8 9 9 8 6 5 5 5 5 5 6 6 6 7 8 8 8
2 3 3 4 4 4 4 6 6 8 9 3 2 6 10 11 10 9 7 7 8 11 13 12 10 10 11 10 9 9 9 9 10 9 10 10 7 6 6 6 6 7 7 6 6 6 7 7 8
2 3 5 5 5 4 6 7 5 12 6 4 6 8 9 10 9 6 6 8 9 11 13 12 13 12 11 9 7 8 10 10 9 9 10 11 10 8 7 6 6 7 8 8 7 6 5 5 6
1 4 8 5 4 4 4 8 10 10 4 7 8 8 8 8 7 8 8 8 9 10 11 13 13 11 11 9 9 9 10 9 8 9 10 10 10 9 7 5 5 6 6 5 4 4 3 3 4
3 4 5 7 2 2 5 10 12 4 7 9 9 8 8 7 7 7 6 6 7 8 10 12 12 11 10 9 9 8 9 8 8 8 8 8 9 9 7 4 4 4 3 2 1 1 1 2 3
3 2 5 8 3 2 5 10 10 1 7 9 9 9 8 7 6 5 4 5 5 8 10 12 11 12 11 8 8 7 7 6 6 6 5 6 6 6 5 3 2 2 2 1 0 1 1 2 4
5 5 5 6 5 2 6 12 14 6 8 10 10 9 9 9 9 4 2 2 3 6 8 10 10 10 9 6 5 4 4 3 4 4 3 3 3 3 4 2 2 2 2 1 1 1 1 1 3
4 4 6 8 6 4 10 14 18 12 9 11 11 11 11 11 6 3 2 2 3 5 8 9 10 9 9 6 5 5 4 3 2 3 4 4 4 4 4 3 3 3 2 2 2 1 2 2 3
4 5 7 8 5 4 8 13 14 12 11 12 12 13 13 9 6 5 4 3 4 5 7 9 10 10 9 7 5 4 4 3 3 4 5 5 5 4 4 4 3 3 2 3 3 2 1 2 2
6 6 7 8 7 5 6 10 9 8 6 7 9 9 10 12 11 9 7 5 5 6 7 8 9 9 9 8 6 5 5 4 3 2 2 4 5 5 5 5 4 4 3 2 1 1 1 1 2
7 8 7 5 3 6 3 7 10 8 9 8 8 8 9 9 9 8 8 7 6 5 5 7 8 8 8 9 8 7 5 4 3 3 2 3 6 6 6 6 5 4 3 2 1 1 1 2 1
8 1 3 1 3 4 3 4 10 7 8 10 8 8 8 9 10 10 9 8 6 6 6 7 8 8 7 7 8 8 6 4 4 3 4 3 4 5 5 5 5 3 2 1 1 1 1 2 2
6 6 5 5 4 4 5 6 9 6 7 8 6 5 7 8 9 8 7 7 6 5 6 7 8 7 7 7 8 8 9 8 6 4 4 2 2 2 4 4 3 2 1 0 0 1 1 2 3
5 5 3 4 2 7 3 4 10 11 8 8 11 8 7 9 9 9 10 9 8 8 8 7 9 7 7 8 7 8 8 8 7 6 5 3 2 1 1 2 1 1 0 1 1 1 2 3 3
7 9 7 5 5 5 2 7 10 10 8 8 7 6 6 9 9 10 10 10 9 9 9 9 9 8 8 8 7 7 7 5 5 5 4 4 3 2 2 1 0 1 1 2 2 2 3 3 4
8 7 7 5 2 4 7 8 11 7 6 5 4 1 6 9 10 10 9 9 10 10 10 10 10 8 8 8 7 7 7 6 6 5 4 3 3 2 2 1 1 1 2 3 2 3 4 4 5
7 9 6 6 5 5 7 6 6 8 8 7 5 5 6 7 8 9 9 9 9 9 8 8 9 9 8 8 7 6 6 6 6 5 5 4 3 2 2 1 2 2 3 3 3 4 5 5 6
7 6 6 6 5 5 4 7 7 7 7 8 8 6 7 9 10 10 9 8 8 8 8 8 8 8 8 8 7 7 6 5 5 5 4 4 3 3 3 3 3 4 4 4 4 5 6 7 7
8 10 9 7 6 6 4 8 7 7 8 7 8 6 5 8 8 8 8 8 9 9 9 9 9 9 8 8 8 7 6 6 5 5 4 4 3 3 3 3 4 5 5 5 6 7 7 7 8
Wind_Direction
340 345 50 55 54 53 220 248 227 235 247 234 137 144 146 154 161 179 332 149 144 151 171 171 163 160 154 146 138 132 126 117 111 105 99 91 85 80 77 73 70 68 65 63 62 60 59 58 55
340 4 55 62 87 96 264 241 218 216 195 119 93 111 120 147 142 137 149 172 152 156 168 169 164 161 156 149 144 140 134 126 119 113 104 96 90 85 81 76 73 70 67 65 63 61 60 58 55
334 40 83 79 118 178 216 221 211 229 164 145 118 112 151 161 166 180 183 160 147 156 166 167 164 162 160 155 151 147 142 137 130 122 111 102 95 89 84 79 75 72 68 65 63 61 59 58 55
75 50 58 83 180 214 223 236 202 174 152 153 138 126 247 323 193 175 143 146 144 155 164 169 166 165 162 159 156 152 149 145 138 127 117 109 102 94 87 82 77 72 68 64 61 58 56 53 50
60 78 69 66 246 249 242 244 175 193 179 166 146 153 208 21 76 127 142 147 150 154 164 172 169 169 166 164 161 158 157 152 144 135 128 118 108 100 93 85 77 71 65 61 57 53 50 48 45
57 70 96 199 270 283 268 191 149 200 183 155 148 156 224 69 121 144 147 147 150 153 163 176 174 173 171 169 167 165 164 161 154 147 141 130 119 111 102 89 78 67 60 53 49 46 43 40 38
103 99 147 185 278 295 289 153 160 184 186 194 163 152 259 243 137 133 132 132 142 155 163 179 178 176 176 174 173 171 168 167 163 158 152 143 133 124 114 99 81 63 51 44 37 32 29 27 25
119 103 118 184 227 267 307 153 161 169 190 135 151 159 218 196 126 112 107 120 140 158 168 180 179 176 177 178 178 174 173 174 171 167 160 154 149 137 123 109 86 32 20 16 12 8 5 6 5
88 78 154 208 206 259 312 111 23 126 122 110 237 208 161 124 125 118 118 134 161 177 183 181 177 173 175 179 181 178 179 181 178 173 169 164 155 147 103 93 261 290 313 328 337 342 348 355 355
86 134 216 222 211 229 281 189 215 127 149 247 264 215 111 135 148 156 167 176 184 190 191 185 178 173 174 179 181 179 180 183 180 174 171 169 175 186 209 260 285 293 305 311 321 331 345 348 335
133 182 231 253 230 221 240 249 212 173 233 224 219 205 158 166 173 181 186 186 191 191 191 188 181 176 174 175 173 174 176 179 181 181 179 178 183 200 222 250 271 284 292 295 302 312 315 314 312
161 227 224 252 236 212 229 248 240 209 228 233 219 181 173 182 191 196 196 195 184 185 195 191 183 179 179 176 174 176 176 180 183 188 188 183 187 203 220 234 250 261 265 267 275 285 293 296 296
215 253 246 254 261 247 245 242 245 247 244 253 175 167 186 196 206 211 205 193 185 192 195 193 184 182 179 176 176 178 183 188 193 196 199 199 198 209 220 231 238 248 250 250 258 267 277 284 290
269 284 295 278 254 239 226 251 235 252 231 206 196 201 206 207 212 211 207 203 198 200 196 191 189 185 179 179 179 181 190 195 197 203 209 210 212 214 216 226 235 245 248 250 254 263 270 278 284
347 334 318 287 244 247 210 273 239 244 182 213 219 219 220 226 223 221 220 214 206 201 192 190 190 182 180 181 183 183 190 192 197 209 215 215 218 217 215 219 232 244 251 252 257 271 276 285 292
50 18 306 294 280 234 174 262 270 242 190 224 230 229 229 232 229 234 238 231 213 196 187 187 187 181 181 178 177 179 184 190 200 207 212 217 221 220 210 212 232 243 231 226 247 276 295 298 304
21 297 269 297 275 180 206 256 277 189 198 233 236 231 232 240 242 240 247 242 216 192 181 179 176 176 177 168 166 166 168 178 191 193 198 208 211 209 198 201 220 192 134 99 21 26 320 309 314
241 239 260 270 283 217 243 259 271 256 223 240 240 233 231 233 235 234 246 250 196 174 167 168 164 162 156 145 135 131 129 134 144 148 156 161 157 164 161 142 113 107 98 61 43 13 348 307 313
187 221 262 264 273 258 256 265 273 269 241 241 238 228 227 229 226 197 173 128 125 140 151 158 155 154 151 149 148 143 142 130 109 104 109 112 113 115 116 107 93 90 92 76 56 40 12 351 350
205 251 269 283 284 242 276 277 270 261 243 233 229 224 220 215 201 190 173 152 148 147 150 151 154 156 158 154 143 132 129 122 112 98 84 84 97 105 110 112 103 93 91 68 55 57 39 355 18
216 218 242 264 314 323 320 300 289 285 263 256 237 227 212 203 198 188 177 169 155 156 157 155 153 152 148 138 122 104 92 87 91 85 76 59 86 97 105 109 107 98 99 91 71 90 106 328 337
241 230 224 255 301 298 356 302 291 285 296 274 252 230 216 201 187 182 176 170 169 165 149 141 142 143 144 144 147 146 146 148 154 139 113 74 79 90 99 104 104 101 98 97 82 113 150 163 271
212 179 161 232 218 295 281 238 284 304 290 284 268 237 220 199 184 180 176 169 160 152 144 137 133 135 141 146 147 139 131 131 125 113 106 86 69 81 91 98 99 97 94 103 111 110 179 187 206
141 79 59 49 79 279 238 202 280 266 253 288 297 256 216 192 180 171 160 149 146 143 139 139 137 134 139 140 141 143 142 141 137 134 130 114 88 73 79 93 94 96 96 103 237 220 226 222 225
123 106 3 332 332 252 239 213 253 260 257 263 280 276 215 186 175 171 168 168 164 161 158 153 146 142 143 141 142 147 148 150 153 154 154 151 142 138 113 91 91 82 323 293 276 250 262 244 239
175 156 175 224 243 284 265 238 257 266 279 282 280 264 193 183 183 183 183 177 173 171 168 162 156 150 151 148 145 144 144 146 150 155 156 163 172 183 180 156 164 275 296 295 282 261 262 248 248
149 192 174 148 204 264 271 279 298 288 295 307 324 260 200 195 191 189 185 182 179 178 178 172 163 157 160 155 146 146 149 150 153 153 153 161 176 183 178 180 218 275 283 278 269 260 267 262 255
152 147 121 152 200 247 276 272 256 297 316 320 307 268 231 207 198 196 191 189 186 183 177 171 167 165 162 157 155 154 155 155 154 152 163 174 183 180 183 208 239 265 273 271 263 266 266 265 264
136 147 151 156 173 184 256 269 232 248 285 296 293 271 229 210 204 200 196 189 182 176 174 175 172 164 162 162 156 151 156 155 155 164 178 183 187 194 213 233 250 264 271 269 265 266 269 266 269
173 174 155 170 212 194 206 267 267 254 273 276 286 280 237 215 207 199 190 181 181 184 182 182 178 174 171 163 157 159 158 158 166 180 189 190 202 217 229 241 257 266 269 268 264 269 271 266 268
Height
1525 1526 1529 1531 1535 1548 1548 1542 1538 1537 1536 1535 1535 1536 1537 1539 1543 1546 1543 1541 1542 1543 1544 1546 1548 1550 1552 1554 1555 1556 1556 1557 1558 1558 1558 1558 1558 1557 1557 1557 1556 1556 1556 1555 1555 1554 1554 1554 1554
1525 1527 1530 1531 1543 1555 1550 1540 1537 1535 1534 1535 1535 1536 1537 1538 1539 1540 1540 1541 1542 1544 1545 1546 1548 1550 1552 1554 1555 1556 1557 1558 1558 1558 1559 1559 1559 1558 1558 1558 1557 1557 1557 1556 1556 1556 1555 1555 1555
1525 1527 1530 1534 1546 1551 1543 1535 1534 1533 1534 1534 1535 1536 1537 1538 1539 1540 1541 1542 1542 1544 1545 1547 1549 1551 1552 1554 1555 1556 1557 1558 1558 1559 1559 1559 1559 1559 1559 1559 1558 1558 1558 1558 1557 1557 1557 1556 1556
1526 1529 1531 1539 1542 1540 1536 1531 1531 1533 1534 1534 1535 1536 1537 1538 1539 1540 1541 1542 1543 1544 1546 1547 1549 1551 1552 1554 1555 1556 1557 1558 1559 1559 1560 1560 1560 1560 1560 1560 1559 1559 1559 1559 1558 1558 1558 1557 1557
1527 1528 1536 1543 1539 1535 1531 1530 1531 1532 1533 1533 1534 1535 1536 1538 1539 1540 1541 1542 1543 1544 1546 1548 1549 1551 1553 1554 1555 1557 1557 1558 1559 1560 1560 1561 1561 1561 1561 1561 1560 1560 1560 1560 1560 1559 1559 1559 1558
1528 1529 1544 1546 1539 1533 1530 1529 1530 1532 1533 1533 1533 1534 1535 1537 1538 1540 1541 1542 1543 1545 1546 1547 1549 1551 1553 1554 1556 1557 1558 1559 1560 1560 1561 1561 1561 1561 1561 1561 1561 1561 1561 1561 1561 1560 1560 1559 1559
1528 1534 1541 1540 1539 1534 1530 1529 1530 1531 1532 1532 1533 1534 1534 1536 1538 1539 1541 1542 1543 1544 1546 1547 1549 1551 1553 1554 1555 1557 1558 1559 1560 1560 1561 1561 1562 1562 1562 1562 1562 1562 1562 1562 1561 1561 1561 1560 1560
1527 1533 1538 1540 1538 1534 1529 1529 1529 1530 1531 1532 1533 1533 1533 1535 1536 1538 1539 1541 1542 1543 1545 1546 1548 1550 1552 1554 1555 1556 1557 1559 1560 1560 1561 1561 1562 1562 1563 1563 1563 1563 1562 1562 1562 1562 1561 1561 1560
1528 1537 1541 1537 1535 1532 1529 1529 1529 1530 1530 1531 1531 1531 1532 1533 1534 1536 1537 1539 1540 1542 1543 1545 1547 1549 1551 1553 1554 1556 1557 1558 1559 1560 1561 1561 1562 1562 1562 1563 1563 1563 1563 1562 1562 1562 1561 1561 1560
1528 1538 1535 1531 1530 1529 1528 1528 1529 1529 1530 1530 1530 1530 1530 1531 1532 1533 1535 1536 1537 1539 1541 1543 1545 1548 1550 1552 1553 1555 1556 1557 1559 1560 1560 1561 1561 1562 1562 1562 1562 1562 1562 1562 1562 1561 1560 1560 1559
1528 1532 1529 1528 1528 1528 1528 1528 1528 1528 1528 1527 1527 1527 1528 1529 1530 1531 1532 1534 1536 1538 1539 1541 1544 1546 1548 1550 1552 1554 1555 1556 1558 1559 1560 1560 1561 1561 1562 1562 1562 1562 1561 1561 1560 1560 1559 1558 1557
1528 1528 1527 1527 1527 1527 1527 1526 1526 1525 1525 1525 1525 1525 1525 1526 1527 1528 1530 1531 1533 1535 1537 1539 1542 1544 1546 1549 1551 1552 1554 1555 1557 1558 1559 1559 1560 1560 1561 1561 1561 1560 1560 1559 1559 1558 1557 1556 1555
1527 1527 1526 1526 1526 1525 1525 1525 1524 1521 1521 1522 1522 1522 1522 1523 1524 1526 1527 1529 1530 1532 1535 1537 1539 1542 1544 1547 1549 1551 1553 1554 1556 1557 1558 1558 1559 1559 1559 1559 1559 1559 1558 1558 1557 1556 1555 1554 1553
1526 1526 1525 1524 1523 1523 1523 1521 1522 1516 1518 1518 1518 1518 1519 1520 1522 1523 1524 1525 1527 1529 1532 1534 1537 1540 1542 1545 1547 1549 1551 1553 1554 1555 1556 1557 1557 1558 1558 1558 1557 1557 1556 1556 1555 1554 1553 1551 1550
1526 1526 1525 1522 1521 1520 1522 1521 1515 1511 1514 1514 1514 1515 1516 1517 1519 1519 1521 1522 1523 1525 1528 1531 1534 1537 1540 1543 1545 1548 1550 1551 1553 1554 1555 1555 1556 1556 1556 1556 1555 1555 1554 1553 1552 1551 1550 1548 1547
1526 1530 1532 1523 1520 1520 1524 1523 1509 1510 1510 1510 1510 1511 1512 1514 1515 1516 1517 1518 1520 1522 1524 1528 1531 1534 1537 1540 1543 1546 1548 1549 1551 1552 1553 1553 1554 1554 1554 1553 1553 1552 1551 1550 1549 1548 1546 1545 1543
1533 1538 1534 1527 1519 1520 1522 1520 1508 1507 1507 1506 1507 1508 1509 1510 1511 1513 1514 1515 1516 1518 1521 1524 1527 1531 1534 1538 1541 1544 1546 1547 1549 1550 1551 1551 1551 1551 1551 1551 1550 1549 1548 1547 1546 1545 1543 1541 1539
1536 1536 1533 1530 1521 1520 1521 1517 1506 1504 1505 1503 1503 1504 1505 1506 1508 1509 1511 1512 1513 1515 1517 1521 1524 1528 1532 1535 1538 1541 1543 1545 1546 1547 1548 1549 1549 1548 1548 1547 1547 1546 1545 1544 1543 1541 1540 1538 1536
1529 1532 1533 1528 1520 1520 1519 1514 1504 1499 1500 1498 1497 1498 1499 1501 1504 1506 1507 1509 1510 1512 1514 1518 1521 1525 1528 1532 1535 1537 1540 1542 1544 1545 1545 1546 1546 1546 1545 1544 1544 1543 1542 1541 1540 1538 1537 1535 1533
1528 1531 1531 1526 1519 1520 1518 1511 1500 1494 1492 1489 1489 1490 1492 1496 1499 1501 1504 1506 1508 1510 1512 1515 1519 1523 1526 1529 1532 1535 1538 1540 1541 1542 1543 1543 1543 1543 1542 1542 1541 1540 1539 1538 1537 1536 1534 1533 1531
1528 1530 1527 1526 1521 1518 1519 1511 1499 1489 1486 1484 1484 1484 1486 1489 1493 1497 1500 1503 1505 1508 1510 1514 1517 1520 1524 1527 1530 1533 1535 1537 1539 1539 1540 1541 1541 1540 1540 1539 1538 1538 1537 1536 1535 1533 1532 1530 1529
1528 1521 1522 1523 1526 1529 1523 1526 1502 1491 1486 1481 1479 1479 1481 1484 1488 1493 1496 1500 1503 1506 1509 1512 1515 1519 1522 1525 1527 1530 1532 1534 1536 1537 1538 1538 1538 1538 1537 1537 1536 1535 1534 1533 1532 1531 1529 1528 1526
1519 1517 1520 1522 1525 1530 1526 1528 1507 1493 1487 1479 1476 1476 1477 1480 1484 1489 1493 1497 1501 1504 1507 1510 1513 1516 1520 1522 1525 1528 1530 1532 1534 1535 1535 1536 1536 1535 1535 1534 1534 1533 1532 1531 1530 1528 1527 1525 1523
1514 1520 1525 1530 1532 1536 1526 1530 1515 1494 1485 1479 1475 1474 1475 1478 1482 1487 1491 1495 1499 1502 1505 1508 1511 1514 1517 1520 1523 1526 1528 1530 1531 1532 1533 1533 1533 1533 1532 1532 1531 1530 1529 1528 1527 1525 1523 1521 1519
1514 1525 1536 1535 1538 1535 1523 1525 1510 1485 1480 1478 1475 1473 1473 1476 1480 1484 1488 1492 1496 1499 1503 1506 1509 1512 1516 1518 1521 1524 1526 1527 1529 1530 1530 1531 1531 1530 1530 1529 1528 1527 1526 1525 1523 1521 1520 1517 1515
1514 1518 1533 1536 1537 1532 1522 1523 1498 1480 1476 1474 1472 1471 1471 1474 1478 1482 1486 1490 1493 1497 1501 1504 1507 1511 1514 1516 1519 1521 1523 1525 1526 1527 1527 1528 1528 1527 1527 1526 1525 1524 1523 1521 1519 1517 1515 1513 1510
1513 1517 1516 1528 1530 1532 1523 1512 1494 1476 1474 1473 1471 1470 1470 1472 1476 1480 1485 1488 1492 1495 1499 1502 1505 1509 1512 1514 1517 1519 1521 1522 1523 1524 1524 1525 1524 1524 1523 1523 1522 1520 1518 1517 1515 1512 1510 1508 1505
1503 1509 1522 1526 1531 1531 1522 1514 1500 1481 1475 1473 1471 1470 1470 1472 1475 1479 1483 1487 1490 1494 1497 1501 1504 1507 1510 1512 1514 1516 1518 1519 1520 1521 1521 1521 1521 1521 1520 1519 1517 1516 1514 1512 1510 1507 1505 1502 1500
1506 1510 1512 1520 1524 1527 1525 1511 1486 1481 1476 1474 1471 1469 1469 1471 1474 1477 1481 1485 1488 1492 1495 1498 1501 1504 1507 1509 1512 1514 1515 1516 1517 1518 1518 1518 1517 1517 1516 1515 1513 1511 1509 1507 1504 1502 1499 1496 1493
1495 1499 1507 1516 1519 1523 1522 1508 1477 1476 1474 1472 1470 1469 1469 1470 1472 1475 1478 1482 1485 1488 1491 1494 1497 1501 1504 1506 1509 1510 1512 1513 1513 1514 1514 1514 1514 1513 1512 1510 1508 1506 1504 1501 1499 1496 1493 1489 1486